This demonstration page uses our WeatherBlox Daily Observations layout. Learn more.

Left ArrowRight Arrow

34.74481, -87.66753

Hourly Observations for December 18, 2019

Temp ( °F °C ) Dew Point ( °F °C ) Humidity (%) Winds ( mph kmh ) Pressure ( in mb ) Visibility ( mi km ) Precip ( " mm )
12:53 am 00:53 Clear 30 -1.1 26 -3.3 85 85 W 5 7 30.26 1025 10 16 0.00 0.00
1:53 am 01:53 Clear 30 -1.1 26 -3.3 85 85 WNW 5 7 30.27 1025 10 16 0.00 0.00
2:53 am 02:53 Clear 29 -1.7 26 -3.3 89 89 WNW 3 6 30.27 1025 10 16 0.00 0.00
3:53 am 03:53 Clear 29 -1.7 25 -3.9 85 85 NW 5 7 30.27 1025 9 14 0.00 0.00
4:53 am 04:53 Clear 29 -1.7 26 -3.3 89 89 NW 3 6 30.28 1026 8 13 0.00 0.00
5:53 am 05:53 Clear 27 -2.8 24 -4.4 89 89 WNW 3 6 30.30 1026 7 11 0.00 0.00
6:53 am 06:53 Sunny with Mist and Fog 28 -2.2 25 -3.9 88 88 NW 6 9 30.32 1027 6 10 0.00 0.00
7:53 am 07:53 Sunny 31 -0.6 27 -2.8 85 85 WNW 6 9 30.34 1027 9 14 0.00 0.00
8:07 am 08:07 Mostly Sunny 31 -0.6 28 -2.2 89 89 WNW 6 9 30.37 1028 9 14 0.00 0.00
8:40 am 08:40 Mostly Cloudy 31 -0.6 28 -2.2 89 89 WNW 7 11 30.38 1029 7 11 0.00 0.00
8:53 am 08:53 Cloudy 31 -0.6 28 -2.2 89 89 NW 6 9 30.37 1028 7 11 0.00 0.00
9:53 am 09:53 Cloudy 33 0.6 29 -1.7 85 85 VRB 5 7 30.39 1029 10 16 0.00 0.00
10:53 am 10:53 Mostly Cloudy 35 1.7 29 -1.7 78 78 W 6 9 30.38 1029 10 16 0.00 0.00
11:23 am 11:23 Partly Cloudy 37 2.8 30 -1.1 76 76 WNW 3 6 30.38 1029 10 16 0.00 0.00
11:53 am 11:53 Sunny 39 3.9 30 -1.1 70 70 W 6 9 30.36 1028 10 16 0.00 0.00
12:53 pm 12:53 Sunny 44 6.7 28 -2.2 53 53 VRB 7 11 30.34 1027 10 16 0.00 0.00
1:53 pm 13:53 Sunny 46 7.8 26 -3.3 46 46 NNW 6 9 30.33 1027 10 16 0.00 0.00
2:53 pm 14:53 Sunny 47 8.3 26 -3.3 44 44 WNW 8 13 30.33 1027 10 16 0.00 0.00
3:53 pm 15:53 Sunny 46 7.8 25 -3.9 44 44 WNW 9 15 30.34 1028 10 16 0.00 0.00
4:53 pm 16:53 Clear 41 5 25 -3.9 53 53 NW 7 11 30.35 1028 10 16 0.00 0.00
5:53 pm 17:53 Clear 41 5 24 -4.4 51 51 NNW 5 7 30.36 1028 10 16 0.00 0.00
6:53 pm 18:53 Clear 40 4.4 26 -3.3 58 58 N 3 6 30.37 1029 10 16 0.00 0.00
7:53 pm 19:53 Clear 38 3.3 27 -2.8 65 65 N 6 9 30.38 1029 10 16 0.00 0.00
8:53 pm 20:53 Clear 37 2.8 27 -2.8 67 67 N 7 11 30.40 1029 10 16 0.00 0.00
9:53 pm 21:53 Clear 35 1.7 27 -2.8 72 72 NNE 5 7 30.40 1029 10 16 0.00 0.00
10:53 pm 22:53 Clear 34 1.1 27 -2.8 76 76 NE 3 6 30.41 1030 10 16 0.00 0.00
11:53 pm 23:53 Clear 33 0.6 26 -3.3 75 75 NE 8 13 30.41 1030 10 16 0.00 0.00

Powered by AerisWeather